Wilmington, NC

8:26 PM EDT on May 26, 2018 (GMT -0400)
Wilmington International

Weather History for KILM - January, 2015

Change the Weather History Date:

Saturday, January 3, 2015

  Actual Average Record
Temperature  
Mean Temperature 59 °F 46 °F  
Max Temperature 67 °F 56 °F 77 °F (2000)
Min Temperature 50 °F 35 °F 15 °F (1918)
Degree Days  
Heating Degree Days 6 19  
Month to date heating degree days 42 57  
Since 1 July heating degree days 958 941  
Cooling Degree Days 0 0  
Month to date cooling degree days 0 0  
Year to date cooling degree days 0 0  
Growing Degree Days 8 (Base 50)    
Moisture  
Dew Point 57 °F    
Average Humidity 89    
Maximum Humidity 100    
Minimum Humidity 78    
Precipitation  
Precipitation 0.16 in 0.11 in 2.57 in (1982)
Month to date precipitation 0.26 0.35  
Year to date precipitation 0.26 0.35  
Snow  
Snow 0.00 in 0.10 in 1.50 in (2002)
Month to date snowfall 0.0 0.1  
Since 1 July snowfall 0.0 0.9  
Snow Depth 0.00 in    
Sea Level Pressure  
Sea Level Pressure 30.27 in    
Wind  
Wind Speed 5 mph (ENE)    
Max Wind Speed 10 mph    
Max Gust Speed 14 mph    
Visibility 8 miles    
Events Rain    
T = Trace of Precipitation, MM = Missing Value Source: NWS Daily Summary

Daily Weather History Graph

Daily Weather History Graph

Search for Another Location

Airport or City:

Astronomy

Jan. 03, 2015 Rise Set
Actual Time 7:18 AM EST 5:14 PM EST
Civil Twilight 6:50 AM EST 5:41 PM EST
Nautical Twilight 6:19 AM EST 6:13 PM EST
Astronomical Twilight 5:48 AM EST 6:43 PM EST
Moon 4:18 PM EST (1/3) 5:41 AM EST (1/3)
Length of Visible Light 10h 51m
Length of Day
9h 56m
Waxing Gibbous, 98% of the Moon is Illuminated
Jan 3
Waxing Gibbous
Jan 4
Full
Jan 13
Last Quarter
Jan 20
New
Jan 26
First Quarter

Hourly Weather History & Observations

Time (EST) Temp. Dew Point Humidity Pressure Visibility Wind Dir Wind Speed Gust Speed Precip Events Conditions
12:53 AM 51.8 °F 50.0 °F 94% 30.34 in 10.0 mi NE 5.8 mph - N/A Rain Light Rain
1:53 AM 52.0 °F 51.1 °F 97% 30.35 in 8.0 mi Calm Calm - 0.00 in   Overcast
2:53 AM 52.0 °F 51.1 °F 97% 30.35 in 7.0 mi NE 5.8 mph - 0.00 in   Mostly Cloudy
3:53 AM 51.1 °F 50.0 °F 96% 30.34 in 10.0 mi NE 5.8 mph - N/A   Mostly Cloudy
4:53 AM 51.1 °F 48.9 °F 92% 30.32 in 10.0 mi ENE 6.9 mph - N/A   Clear
5:16 AM 52.0 °F 48.0 °F 86% 30.32 in 10.0 mi East 8.1 mph - N/A   Mostly Cloudy
5:53 AM 54.0 °F 48.9 °F 83% 30.32 in 10.0 mi ENE 9.2 mph - N/A   Overcast
6:53 AM 54.0 °F 48.9 °F 83% 30.33 in 10.0 mi NNE 6.9 mph - N/A   Overcast
7:53 AM 52.0 °F 48.0 °F 86% 30.34 in 10.0 mi NNE 8.1 mph - N/A   Overcast
8:35 AM 52.0 °F 48.0 °F 86% 30.35 in 10.0 mi NE 6.9 mph - N/A   Overcast
8:53 AM 52.0 °F 48.0 °F 86% 30.35 in 10.0 mi NNE 6.9 mph - N/A   Overcast
9:53 AM 53.1 °F 48.9 °F 86% 30.35 in 10.0 mi NE 8.1 mph - N/A   Overcast
10:14 AM 54.0 °F 48.9 °F 83% 30.34 in 10.0 mi NE 6.9 mph - N/A   Overcast
10:24 AM 55.0 °F 50.0 °F 83% 30.34 in 10.0 mi NE 6.9 mph - N/A   Overcast
10:53 AM 55.9 °F 52.0 °F 87% 30.33 in 10.0 mi NNE 5.8 mph - N/A   Overcast
11:53 AM 60.1 °F 55.0 °F 83% 30.29 in 10.0 mi North 4.6 mph - N/A   Overcast
12:53 PM 63.0 °F 57.0 °F 81% 30.26 in 10.0 mi NNE 4.6 mph - N/A   Overcast
1:53 PM 64.0 °F 57.9 °F 80% 30.24 in 10.0 mi Calm Calm - N/A   Overcast
2:12 PM 64.9 °F 57.9 °F 78% 30.24 in 10.0 mi Calm Calm - N/A   Overcast
2:53 PM 63.0 °F 57.9 °F 84% 30.23 in 2.0 mi Calm Calm - 0.01 in Rain Heavy Rain
2:56 PM 63.0 °F 59.0 °F 87% 30.23 in 1.2 mi Calm Calm - 0.03 in Rain Heavy Rain
3:01 PM 63.0 °F 59.0 °F 87% 30.23 in 1.5 mi Calm Calm - 0.04 in Rain Light Rain
3:04 PM 63.0 °F 59.0 °F 87% 30.22 in 3.0 mi NNE 3.5 mph - 0.04 in Rain Light Rain
3:14 PM 63.0 °F 60.1 °F 90% 30.23 in 5.0 mi North 3.5 mph - 0.04 in Rain Rain
3:53 PM 63.0 °F 60.1 °F 90% 30.23 in 10.0 mi Calm Calm - 0.06 in   Mostly Cloudy
4:53 PM 62.1 °F 61.0 °F 96% 30.23 in 10.0 mi Calm Calm - N/A   Mostly Cloudy
5:09 PM 62.1 °F 61.0 °F 96% 30.23 in 10.0 mi WNW 3.5 mph - 0.00 in Rain Light Rain
5:19 PM 62.1 °F 61.0 °F 96% 30.23 in 10.0 mi Calm Calm - 0.00 in   Overcast
5:47 PM 60.8 °F 60.8 °F 100% 30.22 in 3.0 mi Calm Calm - N/A   Overcast
5:53 PM 61.0 °F 60.1 °F 97% 30.22 in 2.0 mi Calm Calm - 0.00 in   Mostly Cloudy
5:59 PM 61.0 °F 60.1 °F 97% 30.22 in 1.2 mi Calm Calm - N/A   Scattered Clouds
6:07 PM 61.0 °F 60.1 °F 97% 30.22 in 5.0 mi Calm Calm - N/A   Mostly Cloudy
6:25 PM 60.1 °F 59.0 °F 96% 30.23 in 5.0 mi South 3.5 mph - N/A   Mostly Cloudy
6:53 PM 61.0 °F 60.1 °F 97% 30.23 in 5.0 mi Calm Calm - 0.00 in Rain Light Rain
7:35 PM 63.0 °F 63.0 °F 100% 30.23 in 2.0 mi South 6.9 mph - 0.07 in Rain Heavy Rain
7:46 PM 64.0 °F 64.0 °F 100% 30.21 in 7.0 mi Calm Calm - 0.09 in Rain Light Rain
7:53 PM 64.0 °F 64.0 °F 100% 30.22 in 10.0 mi SSE 4.6 mph - 0.09 in Rain Light Rain
8:53 PM 64.9 °F 64.9 °F 100% 30.22 in 10.0 mi South 8.1 mph - 0.00 in   Mostly Cloudy
9:53 PM 66.0 °F 64.9 °F 96% 30.22 in 10.0 mi South 8.1 mph - N/A   Mostly Cloudy
10:53 PM 66.0 °F 64.9 °F 96% 30.21 in 10.0 mi South 5.8 mph - N/A   Partly Cloudy
11:06 PM 66.0 °F 66.0 °F 100% 30.21 in 10.0 mi South 6.9 mph - N/A   Mostly Cloudy
11:35 PM 66.9 °F 66.0 °F 97% 30.20 in 8.0 mi South 5.8 mph - 0.00 in Rain Light Rain
11:53 PM 66.2 °F 64.4 °F 94% 30.19 in 8.0 mi South 4.6 mph - N/A   Overcast